Location: St. Louis
(38.6270°N, 90.1994°W)
Time: 07:13:02
(UTC-06:00)

Transit 2A - Pass Details

Date: 07 December 2021
Orbit: 591 x 967 km, 66.7° (Epoch: 20 January)

Event Time Altitude Azimuth Distance (km) Brightness Sun altitude
Rises 09:49:01 0° 314° (NW) 3,648 8.9 22.2°
Reaches altitude 10° 09:52:35 10° 295° (WNW) 2,669 8.4 22.6°
Maximum altitude 09:56:19 17° 258° (WSW) 2,176 8.3 22.9°
Drops below altitude 10° 09:59:55 10° 221° (SW) 2,555 9.1 23.3°
Sets 10:03:15 0° 201° (SSW) 3,421 10.0 23.6°
